• In Netherlands
  • List of Countries
  • For 7 days
  • Water Temperature
  • Satellite Maps
  • Weather Map
  • Weather Widgets
  • user-avatar
    Login

    Hourly Weather Yelsk

    Today, 23 February, Thursday

    Time Temperature Precipitation Wind Pressure Humidity
    00:00 +1°C° 0.1 mm 4 mps 731 mmHg 97%
    01:00 +1°C° 0.1 mm 4 mps 731 mmHg 98%
    02:00 +3°C° 0.1 mm 4 mps 730 mmHg 98%
    03:00 +3°C° 0.4 mm 4 mps 730 mmHg 98%
    04:00 +3°C° 0.4 mm 4 mps 730 mmHg 98%
    05:00 +3°C° 0.4 mm 4 mps 729 mmHg 98%
    06:00 +3°C° 0.2 mm 4 mps 729 mmHg 97%
    07:00 +3°C° 0.2 mm 4 mps 730 mmHg 95%
    08:00 +1°C° 0.2 mm 4 mps 730 mmHg 94%
    09:00 +3°C° 0.1 mm 4 mps 730 mmHg 91%
    10:00 +2°C° 0.1 mm 5 mps 731 mmHg 87%
    11:00 +2°C° 0.1 mm 5 mps 731 mmHg 84%
    12:00 +2°C° 0.1 mm 5 mps 732 mmHg 82%
    13:00 +2°C° 0.1 mm 6 mps 732 mmHg 81%
    14:00 +2°C° 0.1 mm 6 mps 732 mmHg 79%
    15:00 +2°C° 0 mm 6 mps 733 mmHg 81%
    16:00 +1°C° 0 mm 5 mps 733 mmHg 83%
    17:00 +1°C° 0 mm 4 mps 734 mmHg 84%
    18:00 +1°C° 0 mm 4 mps 734 mmHg 87%
    19:00 0°C° 0 mm 4 mps 734 mmHg 89%
    20:00 0°C° 0 mm 3 mps 735 mmHg 91%
    21:00 0°C° 0 mm 3 mps 734 mmHg 92%
    22:00 0°C° 0 mm 3 mps 734 mmHg 93%
    23:00 0°C° 0 mm 3 mps 734 mmHg 94%

    Tomorrow, 24 February, Friday

    Time Temperature Precipitation Wind Pressure Humidity
    00:00 +1°C° 0.6 mm 3 mps 733 mmHg 95%
    01:00 0°C° 0.6 mm 4 mps 733 mmHg 95%
    02:00 +1°C° 0.6 mm 4 mps 732 mmHg 96%
    03:00 +1°C° 0.1 mm 4 mps 731 mmHg 95%
    04:00 +2°C° 0.1 mm 5 mps 731 mmHg 95%
    05:00 +3°C° 0.1 mm 5 mps 730 mmHg 95%
    06:00 +3°C° 0 mm 5 mps 730 mmHg 93%
    07:00 +3°C° 0 mm 6 mps 730 mmHg 91%
    08:00 +4°C° 0 mm 6 mps 730 mmHg 90%
    09:00 +5°C° 0.1 mm 6 mps 730 mmHg 87%
    10:00 +5°C° 0.1 mm 7 mps 730 mmHg 83%
    11:00 +6°C° 0.1 mm 7 mps 730 mmHg 80%
    12:00 +6°C° 0.2 mm 7 mps 730 mmHg 78%
    13:00 +6°C° 0.2 mm 7 mps 730 mmHg 75%
    14:00 +5°C° 0.2 mm 7 mps 730 mmHg 72%
    15:00 +5°C° 0 mm 7 mps 730 mmHg 74%
    16:00 +4°C° 0 mm 6 mps 731 mmHg 75%
    17:00 +3°C° 0 mm 5 mps 731 mmHg 77%
    18:00 +3°C° 0 mm 6 mps 732 mmHg 78%
    19:00 +3°C° 0 mm 6 mps 732 mmHg 79%
    20:00 +2°C° 0 mm 6 mps 733 mmHg 80%
    21:00 +1°C° 0.2 mm 6 mps 734 mmHg 81%
    22:00 +1°C° 0.2 mm 6 mps 735 mmHg 83%
    23:00 -1°C° 0.2 mm 6 mps 736 mmHg 84%

    Day after tomorrow, 25 February, Saturday

    Time Temperature Precipitation Wind Pressure Humidity
    00:00 -1°C° 0.1 mm 5 mps 737 mmHg 83%
    01:00 -2°C° 0.1 mm 5 mps 738 mmHg 81%
    02:00 -3°C° 0.1 mm 4 mps 739 mmHg 80%
    03:00 -3°C° 0 mm 4 mps 740 mmHg 78%
    04:00 -3°C° 0 mm 4 mps 740 mmHg 76%
    05:00 -2°C° 0 mm 3 mps 741 mmHg 74%
    06:00 -3°C° 0 mm 4 mps 742 mmHg 74%
    07:00 -3°C° 0 mm 4 mps 742 mmHg 73%
    08:00 -3°C° 0 mm 4 mps 743 mmHg 73%
    09:00 -4°C° 0 mm 5 mps 743 mmHg 69%
    10:00 -2°C° 0 mm 5 mps 743 mmHg 65%
    11:00 -1°C° 0 mm 5 mps 744 mmHg 60%
    12:00 -1°C° 0.1 mm 5 mps 744 mmHg 59%
    13:00 -2°C° 0.1 mm 6 mps 744 mmHg 59%
    14:00 -2°C° 0.1 mm 6 mps 744 mmHg 58%
    15:00 -1°C° 0.1 mm 5 mps 744 mmHg 60%
    16:00 -2°C° 0.1 mm 4 mps 745 mmHg 63%
    17:00 -1°C° 0.1 mm 3 mps 745 mmHg 66%
    18:00 -3°C° 0 mm 4 mps 746 mmHg 68%
    19:00 -3°C° 0 mm 4 mps 746 mmHg 70%
    20:00 -3°C° 0 mm 4 mps 747 mmHg 72%
    21:00 -3°C° 0 mm 4 mps 747 mmHg 72%
    22:00 -3°C° 0 mm 4 mps 748 mmHg 71%
    23:00 -4°C° 0 mm 4 mps 748 mmHg 71%

    26 February, Sunday

    Time Temperature Precipitation Wind Pressure Humidity
    00:00 -4°C° 0 mm 4 mps 748 mmHg 73%
    01:00 -4°C° 0 mm 3 mps 749 mmHg 74%
    02:00 -4°C° 0 mm 3 mps 749 mmHg 76%
    03:00 -4°C° 0 mm 3 mps 749 mmHg 78%
    04:00 -4°C° 0 mm 3 mps 749 mmHg 80%
    05:00 -4°C° 0 mm 3 mps 749 mmHg 82%
    06:00 -4°C° 0 mm 4 mps 749 mmHg 80%
    07:00 -4°C° 0 mm 4 mps 749 mmHg 78%
    08:00 -3°C° 0 mm 4 mps 749 mmHg 77%
    09:00 -2°C° 0 mm 5 mps 748 mmHg 71%
    10:00 -1°C° 0 mm 5 mps 748 mmHg 66%
    11:00 -1°C° 0 mm 6 mps 748 mmHg 60%
    12:00 -1°C° 0.1 mm 6 mps 747 mmHg 59%
    13:00 +1°C° 0.1 mm 6 mps 747 mmHg 59%
    14:00 +1°C° 0.1 mm 6 mps 746 mmHg 58%
    15:00 +1°C° 0.1 mm 5 mps 746 mmHg 61%
    16:00 0°C° 0.1 mm 5 mps 745 mmHg 65%
    17:00 0°C° 0.1 mm 4 mps 745 mmHg 69%
    18:00 0°C° 0.1 mm 4 mps 745 mmHg 71%
    19:00 0°C° 0.1 mm 4 mps 744 mmHg 73%
    20:00 -1°C° 0.1 mm 4 mps 744 mmHg 75%
    21:00 -1°C° 0.1 mm 4 mps 744 mmHg 76%
    22:00 -1°C° 0.1 mm 4 mps 744 mmHg 78%
    23:00 -1°C° 0.1 mm 4 mps 744 mmHg 79%

    27 February, Monday

    Time Temperature Precipitation Wind Pressure Humidity
    00:00 -1°C° 0.1 mm 4 mps 744 mmHg 80%
    01:00 -1°C° 0.1 mm 4 mps 744 mmHg 81%
    02:00 -1°C° 0.1 mm 4 mps 744 mmHg 82%
    03:00 -1°C° 0 mm 4 mps 744 mmHg 84%
    04:00 -2°C° 0 mm 4 mps 743 mmHg 85%
    05:00 -2°C° 0 mm 4 mps 743 mmHg 87%
    06:00 -2°C° 0 mm 4 mps 743 mmHg 88%
    07:00 -2°C° 0 mm 4 mps 744 mmHg 89%
    08:00 -2°C° 0 mm 4 mps 744 mmHg 90%
    09:00 -1°C° 0 mm 4 mps 744 mmHg 89%
    10:00 0°C° 0 mm 4 mps 745 mmHg 88%
    11:00 +1°C° 0 mm 4 mps 745 mmHg 87%
    12:00 +2°C° 0 mm 3 mps 745 mmHg 88%
    13:00 +2°C° 0 mm 3 mps 745 mmHg 90%
    14:00 +2°C° 0 mm 3 mps 745 mmHg 91%
    15:00 +2°C° 0 mm 3 mps 746 mmHg 93%
    16:00 +3°C° 0 mm 2 mps 746 mmHg 95%
    17:00 +2°C° 0 mm 2 mps 747 mmHg 97%
    18:00 +2°C° 0 mm 2 mps 747 mmHg 97%
    19:00 +2°C° 0 mm 2 mps 747 mmHg 98%
    20:00 +3°C° 0 mm 1 mps 748 mmHg 98%
    21:00 +3°C° 0 mm 1 mps 748 mmHg 98%
    22:00 +3°C° 0 mm 1 mps 748 mmHg 98%
    23:00 +3°C° 0 mm 1 mps 749 mmHg 98%

    28 February, Tuesday

    Time Temperature Precipitation Wind Pressure Humidity
    00:00 +2°C° 0 mm 1 mps 749 mmHg 98%
    01:00 +2°C° 0 mm 1 mps 749 mmHg 98%
    02:00 +2°C° 0 mm 1 mps 749 mmHg 98%
    03:00 +2°C° 0 mm 1 mps 749 mmHg 98%
    04:00 +2°C° 0 mm 1 mps 749 mmHg 98%
    05:00 +2°C° 0 mm 1 mps 749 mmHg 98%
    06:00 +2°C° 0 mm 1 mps 750 mmHg 98%
    07:00 +2°C° 0 mm 1 mps 750 mmHg 98%
    08:00 +1°C° 0 mm 2 mps 750 mmHg 98%
    09:00 +2°C° 0 mm 2 mps 750 mmHg 93%
    10:00 +4°C° 0 mm 2 mps 750 mmHg 89%
    11:00 +5°C° 0 mm 3 mps 750 mmHg 84%
    12:00 +5°C° 0 mm 3 mps 750 mmHg 82%
    13:00 +7°C° 0 mm 3 mps 749 mmHg 80%
    14:00 +7°C° 0 mm 4 mps 749 mmHg 78%
    15:00 +7°C° 0 mm 3 mps 749 mmHg 81%
    16:00 +7°C° 0 mm 3 mps 749 mmHg 84%
    17:00 +5°C° 0 mm 3 mps 749 mmHg 88%
    18:00 +5°C° 0 mm 3 mps 749 mmHg 90%
    19:00 +4°C° 0 mm 3 mps 749 mmHg 92%
    20:00 +3°C° 0 mm 4 mps 749 mmHg 94%
    21:00 +3°C° 0 mm 4 mps 749 mmHg 95%
    22:00 +3°C° 0 mm 4 mps 748 mmHg 95%
    23:00 +1°C° 0 mm 4 mps 748 mmHg 95%
    Show more